Home > Weather > Alpena > Past weeks

Flag for USA Past Weather in Alpena, Michigan, USA — Yesterday and Last 2 Weeks

Now
70 °F

Passing clouds.


Feels Like: 72 °F
Forecast: 68 / 83 °F
Wind: No wind

Location: Alpena County Regional Airport

Current Time: Jul 27, 2016 at 3:51:29 AM

Latest Report: Jul 27, 2016 at 2:54 AM


Visibility: 10 mi

Pressure: 29.93 "Hg

Humidity: 76%

Dew Point: 62 °F

Location of AlpenaLocation

Past Weather in Alpena — Graph

°F

Alpena Temperature Yesterday

Maximum temperature yesterday: 87 °F (at 1:54 PM)
Minimum temperature yesterday: 58 °F (at 6:54 AM)
Average temperature yesterday: 74 °F

High & Low Weather Summary for the Past Weeks

 TemperatureHumidityPressure
High93 °F (Jul 13, 4:54 PM)93% (Jul 14, 11:01 PM)30.29 "Hg (Jul 14, 11:01 PM)
Low48 °F (Jul 16, 3:54 AM)26% (Jul 22, 5:54 PM)29.60 "Hg (Jul 14, 4:54 AM)
Average72 °F65%29.95 "Hg
* Reported Jul 12 1:54 AM — Jul 27 1:54 AM, Alpena, Weather by CustomWeather, © 2016

Note: Actual official high and low records may vary slightly from our data, if they occured in-between our weather recording intervals... More about our weather records

Advertising

Alpena Weather History for the Previous 24 Hours

Scroll right to see more
 ConditionsComfort  
Time TempWeatherWind HumidityBarometerVisibility
1:54 AM
Wed, Jul 27
71 °FPassing clouds.5 mph68%29.92 "Hg10 mi
12:54 AM65 °FClear.3 mph91%29.94 "Hg10 mi
11:54 PM
Tue, Jul 26
67 °FClear.6 mph90%29.93 "Hg10 mi
10:54 PM69 °FClear.No wind84%29.95 "Hg10 mi
9:54 PM71 °FSunny.No wind81%29.94 "Hg10 mi
8:54 PM73 °FSunny.6 mph74%29.93 "Hg10 mi
7:54 PM79 °FSunny.5 mph58%29.94 "Hg10 mi
6:54 PM83 °FSunny.9 mph44%29.95 "Hg10 mi
5:54 PM85 °FSunny.12 mph39%29.95 "Hg10 mi
4:54 PM86 °FSunny.10 mph36%29.95 "Hg10 mi
3:54 PM87 °FPartly sunny.13 mph36%29.96 "Hg10 mi
2:54 PM87 °FScattered clouds.3 mph30%29.97 "Hg10 mi
1:54 PM87 °FScattered clouds.6 mph31%29.98 "Hg10 mi
12:54 PM86 °FScattered clouds.7 mph33%30.00 "Hg10 mi
11:54 AM82 °FPassing clouds.10 mph38%30.01 "Hg10 mi
10:54 AM81 °FSunny.8 mph42%30.02 "Hg10 mi
9:54 AM79 °FSunny.6 mph48%30.02 "Hg10 mi
8:54 AM73 °FSunny.6 mph59%30.02 "Hg10 mi
7:54 AM66 °FSunny.3 mph73%30.02 "Hg10 mi
6:54 AM58 °FClear.No wind87%30.01 "Hg10 mi
5:54 AM61 °FClear.No wind83%30.00 "Hg10 mi
4:54 AM63 °FClear.3 mph75%29.99 "Hg10 mi
3:54 AM62 °FClear.5 mph83%30.00 "Hg10 mi
Weather by CustomWeather, © 2016

See weather overviewHow to use our weather pages